Home   Weather   Loures   Past weeks
Flag for Portugal

Past Weather in Loures, Portugal — Yesterday and Last 2 Weeks

Now
55 °F

Scattered clouds.


Feels Like: 55 °F
Forecast: 70 / 53 °F
Wind: 5 mph from North

Location: Lisbon Portela Airport

Current Time: May 19, 2019 at 7:37:54 am

Latest Report: May 19, 2019 at 7:00 am


Visibility: N/A

Pressure: 29.98 "Hg

Humidity: 82%

Dew Point: 50 °F

Location of LouresLocation

Past Weather in Loures — Graph

°F

Loures Temperature Yesterday

Maximum temperature yesterday: 64 °F (at 3:30 pm)
Minimum temperature yesterday: 54 °F (at 4:30 am)
Average temperature yesterday: 59 °F

High & Low Weather Summary for the Past Weeks

 TemperatureHumidityPressure
High93 °F (May 13, 5:30 pm)100% (May 7, 4:30 am)30.15 "Hg (May 7, 4:30 am)
Low54 °F (May 11, 6:00 am)13% (May 13, 2:30 pm)29.89 "Hg (May 4, 6:00 am)
Average65 °F67%30.02 "Hg
* Reported May 4 6:00 am — May 19 6:30 am, Loures. Weather by CustomWeather, © 2019

Note: Actual official high and low records may vary slightly from our data, if they occured in-between our weather recording intervals... More about our weather records

Advertising

Loures Weather History for the Previous 24 Hours

Scroll right to see more
 ConditionsComfort  
Time TempWeatherWind HumidityBarometerVisibility
6:30 am
Sun, May 19
55 °FPartly sunny.2 mph82%29.98 "HgN/A
6:00 am55 °FPassing clouds.3 mph82%29.98 "HgN/A
5:30 am55 °FPassing clouds.2 mph82%29.98 "HgN/A
5:00 am55 °FPassing clouds.3 mph82%29.98 "HgN/A
4:30 am55 °FPassing clouds.2 mph82%29.98 "HgN/A
4:00 am55 °FPassing clouds.3 mph82%29.98 "HgN/A
3:30 am55 °FPassing clouds.3 mph82%29.98 "HgN/A
3:00 am57 °FPassing clouds.3 mph77%30.01 "HgN/A
2:30 am57 °FPassing clouds.3 mph77%30.01 "HgN/A
2:00 am57 °FPassing clouds.2 mph77%30.01 "HgN/A
1:30 am57 °FPassing clouds.2 mph77%30.01 "HgN/A
1:00 am57 °FPassing clouds.3 mph77%30.04 "HgN/A
12:30 am55 °FPassing clouds.3 mph82%30.04 "HgN/A
12:00 am55 °FPassing clouds.3 mph82%30.04 "HgN/A
11:30 pm
Sat, May 18
57 °FPassing clouds.5 mph77%30.04 "HgN/A
11:00 pm57 °FPassing clouds.6 mph77%30.04 "HgN/A
10:30 pm57 °FPassing clouds.6 mph77%30.04 "HgN/A
10:00 pm57 °FPassing clouds.7 mph77%30.04 "HgN/A
9:30 pm57 °FClear.9 mph72%30.04 "Hg10 mi
9:00 pm57 °FPassing clouds.9 mph72%30.04 "HgN/A
8:30 pm59 °FPassing clouds.10 mph68%30.04 "HgN/A
8:00 pm59 °FPassing clouds.9 mph63%30.04 "HgN/A
7:30 pm61 °FPassing clouds.9 mph59%30.04 "HgN/A
7:00 pm61 °FPassing clouds.12 mph55%30.04 "HgN/A
6:30 pm63 °FPassing clouds.13 mph56%30.04 "HgN/A
6:00 pm63 °FPassing clouds.14 mph56%30.04 "HgN/A
5:30 pm63 °FScattered clouds.13 mph56%30.04 "HgN/A
5:00 pm63 °FScattered clouds.13 mph56%30.04 "HgN/A
4:30 pm63 °FScattered clouds.13 mph56%30.04 "HgN/A
4:00 pm64 °FScattered clouds.13 mph49%30.04 "HgN/A
3:30 pm64 °FScattered clouds.13 mph52%30.04 "HgN/A
3:00 pm63 °FScattered clouds.12 mph56%30.04 "HgN/A
2:30 pm63 °FPartly sunny.13 mph56%30.04 "HgN/A
2:00 pm61 °FPartly sunny.10 mph55%30.04 "HgN/A
1:30 pm63 °FPartly sunny.16 mph56%30.04 "HgN/A
1:00 pm63 °FPartly sunny.10 mph52%30.04 "HgN/A
12:30 pm63 °FPartly sunny.13 mph52%30.04 "HgN/A
12:00 pm63 °FPartly sunny.10 mph52%30.04 "HgN/A
11:30 am61 °FPartly sunny.14 mph52%30.04 "HgN/A
11:00 am63 °FPartly sunny.13 mph52%30.04 "HgN/A
10:30 am63 °FScattered clouds.15 mph49%30.04 "HgN/A
10:00 am61 °FPassing clouds.14 mph55%30.04 "HgN/A
9:30 am61 °FPartly sunny.10 mph59%30.04 "HgN/A
9:00 am61 °FScattered clouds.13 mph63%30.04 "HgN/A
8:30 am57 °FPassing clouds.9 mph67%30.04 "HgN/A
8:00 am57 °FScattered clouds.7 mph72%30.04 "HgN/A
7:30 am54 °FPassing clouds.3 mph77%30.04 "HgN/A
7:00 am54 °FScattered clouds.3 mph77%30.01 "HgN/A
Weather by CustomWeather, © 2019

See weather overview